Defiance, OH

8:46 AM EDT on April 27, 2017 (GMT -0400)
Defiance Memorial

Weather History for KDFI - October, 2012

Change the Weather History Date:

Wednesday, October 17, 2012

  Actual Average Record
Temperature  
Mean Temperature 66 °F -  
Max Temperature 75 °F 62 °F 87 °F (1938)
Min Temperature 57 °F 40 °F 23 °F (1977)
Cooling Degree Days 1    
Growing Degree Days 16 (Base 50)    
Moisture  
Dew Point 48 °F    
Average Humidity 59    
Maximum Humidity 86    
Minimum Humidity 37    
Precipitation  
Precipitation 0.27 in - - ()
Sea Level Pressure  
Sea Level Pressure 29.66 in    
Wind  
Wind Speed 13 mph (South)    
Max Wind Speed 21 mph    
Max Gust Speed 30 mph    
Visibility 10 miles    
Events Rain    
Averages and records for this station are not official NWS values.
T = Trace of Precipitation, MM = Missing Value Source: NWS Daily Summary

Daily Weather History Graph

Daily Weather History Graph

Search for Another Location

Airport or City:

Trip Planner

Search our weather history database for the weather conditions in past years. The results will help you decide how hot, cold, wet, or windy it might be!

Date:

Astronomy

Oct. 17, 2012 Rise Set
Actual Time 7:52 AM EDT 6:52 PM EDT
Civil Twilight 7:24 AM EDT 7:20 PM EDT
Nautical Twilight 6:52 AM EDT 7:52 PM EDT
Astronomical Twilight 6:20 AM EDT 8:24 PM EDT
Moon 10:27 AM EDT (10/17) 8:26 PM EDT (10/17)
Length of Visible Light 11h 56m
Length of Day
11h 00m
Waxing Crescent, 7% of the Moon is Illuminated
Oct 17
Waxing Crescent
Oct 21
First Quarter
Oct 29
Full
Nov 6
Last Quarter
Nov 13
New

Hourly Weather History & Observations

Time (EDT) Temp. Dew Point Humidity Pressure Visibility Wind Dir Wind Speed Gust Speed Precip Events Conditions
12:53 AM 57.0 °F 41.0 °F 55% 29.74 in 10.0 mi South 15.0 mph - N/A   Overcast
1:53 AM 57.9 °F 43.0 °F 58% 29.74 in 10.0 mi South 8.1 mph 18.4 mph 0.00 in   Overcast
2:53 AM 57.9 °F 44.1 °F 60% 29.74 in 10.0 mi South 15.0 mph 19.6 mph N/A   Overcast
3:53 AM 59.0 °F 46.0 °F 62% 29.73 in 10.0 mi South 12.7 mph - N/A   Overcast
4:53 AM 60.1 °F 46.0 °F 60% 29.73 in 10.0 mi South 10.4 mph - 0.00 in   Overcast
5:53 AM 57.9 °F 46.0 °F 65% 29.73 in 10.0 mi South 10.4 mph - N/A   Mostly Cloudy
6:53 AM 57.0 °F 46.0 °F 67% 29.73 in 10.0 mi South 8.1 mph - N/A   Overcast
7:53 AM 57.0 °F 46.0 °F 67% 29.72 in 10.0 mi South 8.1 mph - N/A   Partly Cloudy
8:53 AM 59.0 °F 46.9 °F 64% 29.72 in 10.0 mi South 11.5 mph - N/A   Clear
9:53 AM 61.0 °F 46.0 °F 58% 29.73 in 10.0 mi South 15.0 mph 20.7 mph N/A   Clear
10:53 AM 64.9 °F 46.9 °F 52% 29.72 in 10.0 mi South 15.0 mph 24.2 mph N/A   Clear
11:53 AM 68.0 °F 48.0 °F 49% 29.70 in 10.0 mi SSW 15.0 mph 24.2 mph N/A   Clear
12:53 PM 70.0 °F 48.0 °F 46% 29.68 in 10.0 mi South 16.1 mph 24.2 mph N/A   Clear
1:53 PM 73.9 °F 46.9 °F 38% 29.64 in 10.0 mi SSW 20.7 mph 29.9 mph N/A   Clear
2:53 PM 73.9 °F 46.0 °F 37% 29.62 in 10.0 mi SSW 18.4 mph 29.9 mph N/A   Clear
3:53 PM 75.0 °F 46.9 °F 37% 29.61 in 10.0 mi South 11.5 mph 23.0 mph N/A   Clear
4:53 PM 73.0 °F 46.0 °F 38% 29.59 in 10.0 mi SSW 15.0 mph 23.0 mph N/A   Mostly Cloudy
5:53 PM 71.1 °F 46.9 °F 42% 29.59 in 10.0 mi South 15.0 mph 21.9 mph N/A   Scattered Clouds
6:53 PM 64.9 °F 52.0 °F 63% 29.62 in 10.0 mi South 8.1 mph - 0.01 in Rain Light Rain
7:53 PM 60.1 °F 55.9 °F 86% 29.65 in 7.0 mi SSW 9.2 mph - 0.10 in Rain Rain
8:53 PM 60.1 °F 55.9 °F 86% 29.62 in 8.0 mi SE 3.5 mph - 0.14 in Rain Light Rain
9:53 PM 60.1 °F 55.0 °F 83% 29.56 in 10.0 mi SE 12.7 mph 18.4 mph 0.02 in Rain Light Rain
10:53 PM 63.0 °F 53.1 °F 70% 29.51 in 10.0 mi SE 12.7 mph 20.7 mph 0.00 in   Overcast
11:53 PM 64.9 °F 51.1 °F 61% 29.51 in 10.0 mi South 12.7 mph 20.7 mph N/A   Overcast